This is the latest recevied weather packets stored in our database for station/object WX8ASH-13. If no packets are shown the sender has not sent any weather packets the latest 10 day(s).
| Time | Temp. | Humidity | Pressure | Rain* | Wind** | Luminosity | Snow |
|---|---|---|---|---|---|---|---|
| 1778009745 | 16.11° C | 87% | 1009 hPa | 0 mm | - | - | - |
| 1778009450 | 16.11° C | 86% | 1008.9 hPa | 0 mm | - | - | - |
| 1778009145 | 16.11° C | 85% | 1008.8 hPa | 0 mm | - | - | - |
| 1778008847 | 16.67° C | 85% | 1008.8 hPa | 0 mm | - | - | - |
| 1778008544 | 16.67° C | 85% | 1008.7 hPa | 0 mm | - | - | - |
| 1778008246 | 16.67° C | 84% | 1008.8 hPa | 0 mm | - | - | - |
| 1778007944 | 16.67° C | 85% | 1008.8 hPa | 0 mm | - | - | - |
| 1778007644 | 16.67° C | 84% | 1008.8 hPa | 0 mm | - | - | - |
| 1778007346 | 17.22° C | 83% | 1008.9 hPa | 0 mm | - | - | - |
| 1778007043 | 17.22° C | 82% | 1008.8 hPa | 0 mm | - | - | - |
| 1778006747 | 17.78° C | 80% | 1008.7 hPa | 0 mm | - | - | - |
| 1778006443 | 18.33° C | 76% | 1008.8 hPa | 0 mm | - | - | - |
| 1778006146 | 18.33° C | 73% | 1008.6 hPa | 0 mm | - | - | - |
| 1778005843 | 18.89° C | 72% | 1008.7 hPa | 0 mm | - | - | - |
| 1778005545 | 18.89° C | 73% | 1008.8 hPa | 0 mm | - | - | - |
| 1778005243 | 18.33° C | 73% | 1008.8 hPa | 0 mm | - | - | - |
| 1778004943 | 18.33° C | 75% | 1008.8 hPa | 0 mm | - | - | - |
| 1778004645 | 17.78° C | 75% | 1008.9 hPa | 0 mm | - | - | - |
| 1778004342 | 17.78° C | 75% | 1009 hPa | 0 mm | - | - | - |
| 1778004048 | 17.78° C | 75% | 1009 hPa | 0 mm | - | - | - |
| 1778003742 | 17.78° C | 75% | 1009 hPa | 0 mm | - | - | - |
| 1778003453 | 17.78° C | 75% | 1008.9 hPa | 0 mm | - | - | - |
| 1778003142 | 17.78° C | 75% | 1008.9 hPa | 0 mm | - | - | - |
| 1778002845 | 17.78° C | 76% | 1008.8 hPa | 0 mm | - | - | - |
| 1778002542 | 17.78° C | 76% | 1008.9 hPa | 0 mm | - | - | - |
* Rain latest hour (hover to see other rain measurements)
** Current wind speed in m/s (hover to see current wind gust speed)